{"data":{"norad_id":68150,"intl_designator":"2026-049J","name":"STARLINK-37060","alt_names":[],"object_type":"PAYLOAD","status":"ACTIVE","operator":null,"country":"US","launch_date":"2026-03-13","launch_site_code":"AFWTR","launch_vehicle":null,"mission":null,"orbit_class":"UNKNOWN","rcs_meters":null,"size_class":null,"mass_kg":null,"dimensions":null,"purposes":["comms"],"wikipedia_slug":null,"has_3d_model":false,"image_url":null,"decayed_at":null,"tle_current":{"epoch":"2026-09-19T15:39:36.689472Z","epoch_age_seconds":129429,"freshness":"FRESH","line1":"1 68150U 26049J   26262.65250798  .00011069  00000+0  34450-3 0  9996","line2":"2 68150  97.2861 282.6599 0001696 348.8811  11.2394 15.33461189 29373","mean_motion":15.33461189,"eccentricity":0.0001696,"inclination_deg":97.2861,"raan_deg":282.6599,"arg_perigee_deg":348.8811,"mean_anomaly_deg":11.2394,"bstar":0.0003445,"rev_number":2937,"period_min":93.905213273709,"perigee_km":464.33432783929,"apogee_km":466.65568781635,"semimajor_km":6843.6320078278,"source":"CELESTRAK","updated_at":"2026-09-20T09:00:43.793152Z"}}}